TimeCST,TemperatureF,Dew PointF,Humidity,Sea Level PressureIn,VisibilityMPH,Wind Direction,Wind SpeedMPH,Gust SpeedMPH,PrecipitationIn,Events,Conditions,WindDirDegrees,DateUTC
12:53 AM,25.0,19.0,78,29.98,10.0,Variable,3.5,-,N/A,,Clear,0,2012-12-07 06:53:00
1:53 AM,23.0,18.0,81,30.01,10.0,Variable,3.5,-,N/A,,Clear,0,2012-12-07 07:53:00
2:53 AM,24.1,17.1,75,30.02,10.0,Calm,Calm,-,N/A,,Partly Cloudy,0,2012-12-07 08:53:00
3:53 AM,23.0,17.1,78,30.02,10.0,Calm,Calm,-,N/A,,Clear,0,2012-12-07 09:53:00
4:53 AM,21.9,17.1,82,30.03,10.0,Calm,Calm,-,N/A,,Clear,0,2012-12-07 10:53:00
5:53 AM,21.0,16.0,81,30.03,10.0,Calm,Calm,-,N/A,,Clear,0,2012-12-07 11:53:00
6:53 AM,19.9,16.0,85,30.04,10.0,Calm,Calm,-,N/A,,Clear,0,2012-12-07 12:53:00
7:53 AM,18.0,14.0,84,30.05,10.0,Calm,Calm,-,N/A,,Clear,0,2012-12-07 13:53:00
8:53 AM,19.0,16.0,88,30.07,10.0,Calm,Calm,-,N/A,,Mostly Cloudy,0,2012-12-07 14:53:00
9:53 AM,24.1,19.0,81,30.08,10.0,Calm,Calm,-,N/A,,Overcast,0,2012-12-07 15:53:00
10:50 AM,26.6,17.6,69,30.02,10.0,Variable,3.5,-,N/A,,Scattered Clouds,0,2012-12-07 16:50:00
10:53 AM,26.1,18.0,71,30.08,10.0,WNW,3.5,-,N/A,,Scattered Clouds,300,2012-12-07 16:53:00
11:01 AM,26.6,17.6,69,30.02,10.0,Calm,Calm,-,N/A,,Mostly Cloudy,0,2012-12-07 17:01:00
11:13 AM,26.6,17.6,69,30.02,10.0,Variable,3.5,-,N/A,,Scattered Clouds,0,2012-12-07 17:13:00
11:53 AM,27.0,17.1,66,30.06,10.0,Variable,3.5,-,N/A,,Clear,0,2012-12-07 17:53:00
12:53 PM,28.0,17.1,63,30.06,10.0,Calm,Calm,-,N/A,,Mostly Cloudy,0,2012-12-07 18:53:00
1:53 PM,28.0,18.0,66,30.06,10.0,Variable,3.5,-,N/A,,Overcast,0,2012-12-07 19:53:00
2:53 PM,28.0,18.0,66,30.06,10.0,Variable,3.5,-,N/A,,Overcast,0,2012-12-07 20:53:00
3:53 PM,27.0,18.0,69,30.07,10.0,Calm,Calm,-,N/A,,Overcast,0,2012-12-07 21:53:00
4:53 PM,27.0,19.0,72,30.08,10.0,Calm,Calm,-,N/A,,Overcast,0,2012-12-07 22:53:00
5:53 PM,27.0,19.0,72,30.09,10.0,Calm,Calm,-,N/A,,Overcast,0,2012-12-07 23:53:00
7:53 PM,26.1,19.9,78,30.09,10.0,Calm,Calm,-,N/A,,Overcast,0,2012-12-08 01:53:00
8:53 PM,26.1,19.9,78,30.09,10.0,Calm,Calm,-,N/A,,Overcast,0,2012-12-08 02:53:00
9:53 PM,25.0,21.0,85,30.08,10.0,Calm,Calm,-,N/A,,Overcast,0,2012-12-08 03:53:00
10:53 PM,24.1,19.9,84,30.07,10.0,Calm,Calm,-,N/A,,Overcast,0,2012-12-08 04:53:00
11:53 PM,25.0,19.9,81,30.08,6.0,Calm,Calm,-,N/A,,Haze,0,2012-12-08 05:53:00